GW0175 Weather Reports


time (UTC)temp
C
wind
direction
speed
KPH
gust
KPH
rain 1hr
cm
rain 24hr
cm
rain mn
cm
humidity
%
barometer
mb
20220629025853 25 117 3.2 8.0 0.00 0.00 0.00 57 1019.5
20220629025351 25 161 3.2 6.4 0.00 0.00 0.00 56 1019.6
20220629024850 25 112 0.0 8.0 0.00 0.00 0.00 55 1019.6
20220629024349 25 112 4.8 6.4 0.00 0.00 0.00 56 1019.2
20220629023848 25 156 6.4 14.5 0.00 0.00 0.00 56 1019.2
20220629023347 25 143 6.4 8.0 0.00 0.00 0.00 56 1019.3
20220629022847 25 144 4.8 6.4 0.00 0.00 0.00 55 1019.2
20220629022346 26 132 3.2 8.0 0.00 0.00 0.00 55 1019.1
20220629021845 26 151 8.0 8.0 0.00 0.00 0.00 55 1019.0
20220629021344 26 144 4.8 9.7 0.00 0.00 0.00 54 1018.9
20220629020844 26 90 3.2 9.7 0.00 0.00 0.00 54 1019.0
20220629020343 26 154 4.8 11.3 0.00 0.00 0.00 53 1018.8
20220629015843 26 129 3.2 8.0 0.00 0.00 0.00 52 1018.9
20220629015342 26 103 4.8 8.0 0.00 0.00 0.00 53 1018.8
20220629014842 26 115 0.0 11.3 0.00 0.00 0.00 53 1018.6
20220629014340 26 158 4.8 12.9 0.00 0.00 0.00 52 1018.5
20220629013839 26 99 3.2 9.7 0.00 0.00 0.00 52 1018.6
20220629013338 26 32 6.4 9.7 0.00 0.00 0.00 52 1018.3
20220629012837 26 87 4.8 11.3 0.00 0.00 0.00 52 1018.2
20220629012337 26 98 1.6 6.4 0.00 0.00 0.00 51 1018.3
20220629011835 26 97 6.4 14.5 0.00 0.00 0.00 50 1018.3
20220629011334 26 90 1.6 12.9 0.00 0.00 0.00 52 1018.5
20220629010832 26 99 4.8 9.7 0.00 0.00 0.00 52 1018.5
20220629010331 26 113 4.8 6.4 0.00 0.00 0.00 55 1018.2
20220629005831 26 77 1.6 17.7 0.00 0.00 0.00 55 1018.4
20220629005330 26 79 14.5 24.1 0.00 0.00 0.00 56 1018.2
20220629004829 26 93 20.9 30.6 0.00 0.00 0.00 54 1018.2
20220629004329 27 108 17.7 17.7 0.00 0.00 0.00 53 1018.1
20220629003828 27 90 0.0 22.5 0.00 0.00 0.00 52 1018.1
20220629003327 28 65 3.2 9.7 0.00 0.00 0.00 49 1017.9
20220629002826 28 23 0.0 4.8 0.00 0.00 0.00 49 1017.7
20220629002325 28 32 6.4 8.0 0.00 0.00 0.00 48 1017.9
20220629001823 28 3 4.8 8.0 0.00 0.00 0.00 49 1017.7
20220629001323 28 6 4.8 8.0 0.00 0.00 0.00 50 1017.4
20220629000822 28 357 4.8 8.0 0.00 0.00 0.00 48 1017.6
20220629000321 28 315 3.2 8.0 0.00 0.00 0.00 50 1017.7
20220628235820 28 350 4.8 6.4 0.00 0.00 0.00 50 1017.8
20220628235319 28 343 3.2 6.4 0.00 0.00 0.00 51 1017.7
20220628234818 28 321 4.8 9.7 0.00 0.00 0.00 49 1017.7
20220628234316 28 343 6.4 9.7 0.00 0.00 0.00 50 1017.9
20220628233815 28 345 8.0 9.7 0.00 0.00 0.00 50 1018.0
20220628233315 28 0 6.4 9.7 0.00 0.00 0.00 49 1018.2
20220628232816 28 0 3.2 8.0 0.00 0.00 0.00 52 1018.3
20220628232314 28 346 8.0 8.0 0.00 0.00 0.00 49 1018.2
20220628231814 28 14 4.8 8.0 0.00 0.00 0.00 49 1018.4
20220628231313 28 35 4.8 8.0 0.00 0.00 0.00 50 1018.5
20220628230812 28 357 11.3 11.3 0.00 0.00 0.00 50 1018.4
20220628230311 28 356 6.4 8.0 0.00 0.00 0.00 50 1018.5
20220628225810 28 352 4.8 6.4 0.00 0.00 0.00 48 1018.9
20220628225309 29 7 3.2 4.8 0.00 0.00 0.00 46 1018.6
20220628224807 28 8 6.4 8.0 0.00 0.00 0.00 48 1018.4
20220628224306 28 356 6.4 8.0 0.00 0.00 0.00 50 1018.6
20220628223806 28 2 4.8 9.7 0.00 0.00 0.00 48 1018.6
20220628223305 29 350 4.8 8.0 0.00 0.00 0.00 46 1018.4
20220628222804 29 27 8.0 9.7 0.00 0.00 0.00 45 1018.5
20220628222302 28 22 11.3 16.1 0.00 0.00 0.00 47 1018.2
20220628221802 29 349 11.3 14.5 0.00 0.00 0.00 46 1018.5
20220628221301 30 343 9.7 11.3 0.00 0.00 0.00 46 1018.6
20220628220802 30 337 8.0 14.5 0.00 0.00 0.00 44 1018.9
20220628220301 30 30 8.0 9.7 0.00 0.00 0.00 46 1018.8
20220628215801 30 0 8.0 16.1 0.00 0.00 0.00 47 1018.9
20220628215300 31 358 6.4 12.9 0.00 0.00 0.00 44 1019.0
20220628214759 30 343 6.4 6.4 0.00 0.00 0.00 41 1019.1
20220628214258 30 339 9.7 11.3 0.00 0.00 0.00 41 1018.9
20220628213757 30 285 1.6 11.3 0.00 0.00 0.00 41 1018.9
20220628213255 31 329 4.8 12.9 0.00 0.00 0.00 43 1019.2
20220628212754 31 42 11.3 17.7 0.00 0.00 0.00 43 1019.2
20220628212253 31 0 4.8 8.0 0.00 0.00 0.00 40 1019.1
20220628211753 31 123 3.2 4.8 0.00 0.00 0.00 39 1019.1
20220628211253 30 172 0.0 6.4 0.00 0.00 0.00 43 1019.1
20220628210752 30 206 3.2 8.0 0.00 0.00 0.00 43 1019.3
20220628210250 30 244 8.0 11.3 0.00 0.00 0.00 44 1019.3
20220628205750 30 344 0.0 6.4 0.00 0.00 0.00 45 1019.5
20220628205248 30 11 6.4 9.7 0.00 0.00 0.00 44 1019.3
20220628204747 30 185 0.0 14.5 0.00 0.00 0.00 44 1019.7
20220628204246 30 97 0.0 6.4 0.00 0.00 0.00 47 1019.6
20220628203746 30 0 4.8 4.8 0.00 0.00 0.00 45 1019.7
20220628203245 29 228 0.0 6.4 0.00 0.00 0.00 47 1020.0
20220628202743 30 258 3.2 6.4 0.00 0.00 0.00 45 1020.0
20220628202242 30 245 0.0 4.8 0.00 0.00 0.00 44 1020.0
20220628201742 30 352 11.3 11.3 0.00 0.00 0.00 49 1019.8
20220628201241 29 9 6.4 11.3 0.00 0.00 0.00 52 1020.2
20220628200740 28 0 6.4 9.7 0.00 0.00 0.00 51 1020.3
20220628200239 28 355 8.0 12.9 0.00 0.00 0.00 52 1020.3
20220628195737 28 329 12.9 12.9 0.00 0.00 0.00 52 1020.6
20220628195236 30 32 3.2 6.4 0.00 0.00 0.00 49 1020.6
20220628194735 28 356 3.2 6.4 0.00 0.00 0.00 50 1020.4
20220628194234 28 5 8.0 11.3 0.00 0.00 0.00 52 1020.7
20220628193733 28 18 3.2 9.7 0.00 0.00 0.00 54 1020.9
20220628193232 28 236 4.8 4.8 0.00 0.00 0.00 51 1020.6
20220628192731 28 203 4.8 8.0 0.00 0.00 0.00 52 1020.9
20220628192231 28 254 4.8 4.8 0.00 0.00 0.00 53 1020.8
20220628191729 27 348 8.0 16.1 0.00 0.00 0.00 54 1020.9
20220628191228 28 29 0.0 14.5 0.00 0.00 0.00 56 1021.4
20220628190727 28 180 1.6 3.2 0.00 0.00 0.00 52 1021.2
20220628190226 28 24 6.4 8.0 0.00 0.00 0.00 52 1021.3
20220628185726 27 57 4.8 9.7 0.00 0.00 0.00 53 1021.3
20220628185225 27 74 1.6 12.9 0.00 0.00 0.00 55 1021.5
20220628184724 28 86 4.8 4.8 0.00 0.00 0.00 52 1021.2
20220628184223 27 0 0.0 6.4 0.00 0.00 0.00 55 1021.6
20220628183721 27 350 4.8 8.0 0.00 0.00 0.00 54 1021.6
20220628183221 27 74 0.0 8.0 0.00 0.00 0.00 54 1021.7
20220628182720 27 326 8.0 8.0 0.00 0.00 0.00 58 1021.7
20220628182219 27 342 4.8 4.8 0.00 0.00 0.00 54 1021.6
20220628181718 27 47 4.8 8.0 0.00 0.00 0.00 56 1021.7
20220628181217 27 336 6.4 8.0 0.00 0.00 0.00 56 1021.8
20220628180717 27 10 4.8 8.0 0.00 0.00 0.00 55 1021.6
20220628180216 27 15 3.2 6.4 0.00 0.00 0.00 58 1022.0
20220628175715 26 346 4.8 11.3 0.00 0.00 0.00 60 1021.8
20220628175215 25 45 4.8 11.3 0.00 0.00 0.00 61 1022.1
20220628174714 26 10 8.0 12.9 0.00 0.00 0.00 60 1022.0
20220628174213 26 26 1.6 8.0 0.00 0.00 0.00 60 1022.0
20220628173711 25 357 4.8 9.7 0.00 0.00 0.00 63 1022.3
20220628173209 26 7 8.0 8.0 0.00 0.00 0.00 61 1022.5
20220628172708 26 30 6.4 11.3 0.00 0.00 0.00 60 1022.5
20220628172206 27 21 4.8 11.3 0.00 0.00 0.00 58 1022.4
20220628171706 26 257 3.2 4.8 0.00 0.00 0.00 60 1022.4
20220628171204 26 0 0.0 4.8 0.00 0.00 0.00 61 1022.4
20220628170703 25 317 6.4 8.0 0.00 0.00 0.00 64 1022.3
20220628170202 25 319 3.2 11.3 0.00 0.00 0.00 63 1022.6
20220628165700 25 15 8.0 8.0 0.00 0.00 0.00 65 1022.6
20220628165200 25 345 8.0 11.3 0.00 0.00 0.00 64 1022.6
20220628164659 25 48 3.2 9.7 0.00 0.00 0.00 64 1022.6
20220628164159 25 5 8.0 11.3 0.00 0.00 0.00 65 1022.5
20220628163657 25 21 4.8 9.7 0.00 0.00 0.00 63 1022.8
20220628163157 24 23 8.0 11.3 0.00 0.00 0.00 65 1022.8
20220628162656 25 41 6.4 6.4 0.00 0.00 0.00 65 1022.5
20220628162155 24 6 6.4 9.7 0.00 0.00 0.00 64 1022.8
20220628161654 25 277 0.0 9.7 0.00 0.00 0.00 61 1022.8
20220628161152 25 20 6.4 12.9 0.00 0.00 0.00 66 1022.9
20220628160651 25 82 1.6 8.0 0.00 0.00 0.00 64 1022.9
20220628160149 25 48 3.2 11.3 0.00 0.00 0.00 66 1022.9
20220628155648 24 41 3.2 14.5 0.00 0.00 0.00 69 1023.2
20220628155146 23 11 6.4 9.7 0.00 0.00 0.00 66 1023.0
20220628154647 25 30 6.4 8.0 0.00 0.00 0.00 64 1022.9
20220628154146 25 49 4.8 6.4 0.00 0.00 0.00 63 1023.0
20220628153646 24 70 4.8 9.7 0.00 0.00 0.00 67 1022.9
20220628153146 24 34 8.0 12.9 0.00 0.00 0.00 69 1023.0
20220628152645 23 5 11.3 16.1 0.00 0.00 0.00 69 1022.9
20220628152144 25 55 8.0 12.9 0.00 0.00 0.00 67 1023.0
20220628151642 25 30 14.5 16.1 0.00 0.00 0.00 66 1023.1
20220628151142 24 25 9.7 16.1 0.00 0.00 0.00 69 1023.0
20220628150641 23 38 9.7 14.5 0.00 0.00 0.00 69 1022.9
20220628150141 23 343 6.4 11.3 0.00 0.00 0.00 69 1022.8
20220628145639 23 32 11.3 12.9 0.00 0.00 0.00 69 1022.9
20220628145140 23 26 6.4 11.3 0.00 0.00 0.00 71 1022.8
20220628144638 23 13 11.3 14.5 0.00 0.00 0.00 72 1022.9
20220628144138 22 5 11.3 14.5 0.00 0.00 0.00 73 1023.2
20220628143637 22 26 6.4 12.9 0.00 0.00 0.00 75 1023.1
20220628143137 22 4 11.3 12.9 0.00 0.00 0.00 75 1023.1
20220628142635 22 355 9.7 12.9 0.00 0.00 0.00 75 1022.9
20220628142135 22 0 4.8 8.0 0.00 0.00 0.00 72 1022.7
20220628141635 22 0 0.0 4.8 0.00 0.00 0.00 76 1022.7
20220628141134 22 45 3.2 3.2 0.00 0.00 0.00 77 1022.5
20220628140633 22 123 3.2 4.8 0.00 0.00 0.00 77 1022.5
20220628140132 22 103 4.8 9.7 0.00 0.00 0.00 78 1022.7
20220628135632 22 96 4.8 11.3 0.00 0.00 0.00 78 1022.5
20220628135131 22 104 6.4 12.9 0.00 0.00 0.00 78 1022.4
20220628134629 22 106 3.2 4.8 0.00 0.00 0.00 79 1022.6
20220628134129 21 117 4.8 9.7 0.00 0.00 0.00 80 1022.6
20220628133629 21 104 8.0 11.3 0.00 0.00 0.00 80 1022.5
20220628133129 21 113 4.8 9.7 0.00 0.00 0.00 81 1022.6
20220628132628 21 82 0.0 4.8 0.00 0.00 0.00 81 1022.6
20220628132127 21 112 3.2 8.0 0.00 0.00 0.00 84 1022.3
20220628131627 21 90 0.0 6.4 0.00 0.00 0.00 83 1022.5
20220628131127 21 84 0.0 8.0 0.00 0.00 0.00 85 1022.3
20220628130626 20 61 3.2 6.4 0.00 0.00 0.00 85 1022.3
20220628130125 20 59 3.2 6.4 0.00 0.00 0.00 85 1022.3
20220628125624 20 71 0.0 4.8 0.00 0.00 0.00 87 1022.1
20220628125123 20 34 3.2 4.8 0.00 0.00 0.00 89 1021.9
20220628124622 19 74 0.0 4.8 0.00 0.00 0.00 90 1022.4
20220628124122 18 81 0.0 3.2 0.00 0.00 0.00 93 1021.9
20220628123620 18 90 0.0 4.8 0.00 0.00 0.00 95 1022.1
20220628123120 17 90 0.0 6.4 0.00 0.00 0.00 95 1022.0
20220628122619 17 96 0.0 4.8 0.00 0.00 0.00 95 1022.1
20220628122120 17 19 0.0 3.2 0.00 0.00 0.00 95 1021.9
20220628121618 17 99 0.0 0.0 0.00 0.00 0.00 95 1022.0
20220628121117 17 90 0.0 0.0 0.00 0.00 0.00 95 1021.8
20220628120616 17 29 1.6 3.2 0.00 0.00 0.00 95 1021.9
20220628120116 17 82 1.6 3.2 0.00 0.00 0.00 94 1021.8
20220628115615 17 78 3.2 3.2 0.00 0.00 0.00 94 1021.8
20220628115114 17 69 0.0 3.2 0.00 0.00 0.00 94 1021.6
20220628114613 17 111 4.8 4.8 0.00 0.00 0.00 93 1021.8
20220628114113 17 84 3.2 3.2 0.00 0.00 0.00 93 1021.5
20220628113612 17 6 0.0 4.8 0.00 0.00 0.00 93 1021.8
20220628113112 18 74 3.2 4.8 0.00 0.00 0.00 92 1021.9
20220628112610 18 90 1.6 3.2 0.00 0.00 0.00 91 1021.8
20220628112110 18 90 0.0 3.2 0.00 0.00 0.00 89 1021.7
20220628111608 18 159 0.0 3.2 0.00 0.00 0.00 88 1021.6
20220628111107 19 174 1.6 6.4 0.00 0.00 0.00 87 1021.5
20220628110607 19 199 4.8 4.8 0.00 0.00 0.00 87 1021.4
20220628110106 19 167 4.8 8.0 0.00 0.00 0.00 86 1021.7
20220628105604 19 133 4.8 4.8 0.00 0.00 0.00 87 1021.6
20220628105102 19 158 4.8 8.0 0.00 0.00 0.00 87 1021.8
20220628104601 19 230 0.0 4.8 0.00 0.00 0.00 87 1021.8
20220628104100 19 130 4.8 11.3 0.00 0.00 0.00 86 1021.9
20220628103559 20 157 4.8 9.7 0.00 0.00 0.00 86 1022.0
20220628103057 19 161 4.8 11.3 0.00 0.00 0.00 88 1021.8
20220628102557 19 157 8.0 9.7 0.00 0.00 0.00 88 1021.9
20220628102056 19 154 4.8 8.0 0.00 0.00 0.00 88 1021.9
20220628101556 19 127 3.2 11.3 0.00 0.00 0.00 88 1021.9
20220628101055 19 146 8.0 8.0 0.00 0.00 0.00 89 1021.9
20220628100554 19 151 4.8 6.4 0.00 0.00 0.00 89 1021.7
20220628100053 18 152 3.2 4.8 0.00 0.00 0.00 88 1021.7
20220628095551 18 140 3.2 4.8 0.00 0.00 0.00 88 1021.9
20220628095050 18 120 3.2 3.2 0.00 0.00 0.00 88 1021.6
20220628094550 18 150 3.2 3.2 0.00 0.00 0.00 88 1021.8
20220628094050 18 120 1.6 4.8 0.00 0.00 0.00 87 1021.7
20220628093548 19 154 0.0 3.2 0.00 0.00 0.00 87 1021.7
20220628093047 19 90 0.0 1.6 0.00 0.00 0.00 86 1021.8
20220628092548 19 139 0.0 3.2 0.00 0.00 0.00 86 1022.0
20220628092047 18 81 0.0 6.4 0.00 0.00 0.00 87 1021.8
20220628091546 18 106 1.6 3.2 0.00 0.00 0.00 87 1021.8
20220628091046 18 165 0.0 0.0 0.00 0.00 0.00 85 1021.7
20220628090544 19 165 0.0 0.0 0.00 0.00 0.00 85 1021.9
20220628090043 19 180 0.0 1.6 0.00 0.00 0.00 85 1021.8
20220628085541 19 114 0.0 1.6 0.00 0.00 0.00 85 1021.9
20220628085041 19 126 0.0 3.2 0.00 0.00 0.00 84 1021.8
20220628084540 19 172 0.0 3.2 0.00 0.00 0.00 84 1021.8
20220628084039 20 188 3.2 4.8 0.00 0.00 0.00 84 1022.0
20220628083537 19 180 0.0 3.2 0.00 0.00 0.00 84 1021.8
20220628083037 19 198 0.0 4.8 0.00 0.00 0.00 83 1022.3
20220628082536 19 180 0.0 4.8 0.00 0.00 0.00 83 1021.9
20220628082035 20 200 1.6 3.2 0.00 0.00 0.00 84 1022.1
20220628081533 19 254 1.6 3.2 0.00 0.00 0.00 83 1021.9
20220628081033 20 175 1.6 4.8 0.00 0.00 0.00 83 1021.9
20220628080532 19 200 1.6 4.8 0.00 0.00 0.00 83 1022.0
20220628080031 19 221 0.0 4.8 0.00 0.00 0.00 83 1021.7
20220628075531 20 239 3.2 8.0 0.00 0.00 0.00 83 1022.0
20220628075029 20 215 1.6 4.8 0.00 0.00 0.00 81 1022.0
20220628074528 20 206 1.6 4.8 0.00 0.00 0.00 81 1021.9
20220628074028 20 180 0.0 6.4 0.00 0.00 0.00 81 1022.1
20220628073527 20 243 3.2 6.4 0.00 0.00 0.00 81 1022.3
20220628073026 20 180 0.0 4.8 0.00 0.00 0.00 80 1022.3
20220628072526 20 162 1.6 4.8 0.00 0.00 0.00 80 1022.3
20220628072025 20 202 3.2 3.2 0.00 0.00 0.00 78 1022.5
20220628071524 20 166 6.4 9.7 0.00 0.00 0.00 77 1022.3
20220628071024 20 156 3.2 4.8 0.00 0.00 0.00 79 1022.4
20220628070522 20 198 1.6 3.2 0.00 0.00 0.00 78 1022.4
20220628070021 20 156 3.2 4.8 0.00 0.00 0.00 78 1022.1
20220628065520 20 166 3.2 6.4 0.00 0.00 0.00 77 1022.3
20220628065020 20 160 4.8 8.0 0.00 0.00 0.00 76 1022.3
20220628064518 21 157 4.8 9.7 0.00 0.00 0.00 75 1022.4
20220628064018 21 125 3.2 6.4 0.00 0.00 0.00 74 1022.3
20220628063518 21 168 4.8 8.0 0.00 0.00 0.00 74 1022.6
20220628063018 21 161 3.2 4.8 0.00 0.00 0.00 73 1022.6
20220628062517 21 120 3.2 6.4 0.00 0.00 0.00 72 1022.5
20220628062016 21 159 3.2 8.0 0.00 0.00 0.00 72 1022.5
20220628061515 21 166 8.0 8.0 0.00 0.00 0.00 71 1022.5
20220628061014 21 158 14.5 14.5 0.00 0.00 0.00 71 1022.4
20220628060512 21 161 6.4 9.7 0.00 0.00 0.00 74 1022.3
20220628060011 21 144 9.7 12.9 0.00 0.00 0.00 75 1022.3
20220628055510 21 138 8.0 8.0 0.00 1.45 1.45 76 1022.5
20220628055009 22 131 4.8 14.5 0.00 1.45 1.45 75 1022.5
20220628054509 22 161 3.2 11.3 0.00 1.45 1.45 75 1022.3
20220628054008 22 141 8.0 11.3 0.00 1.45 1.45 74 1022.4
20220628053508 22 156 6.4 11.3 0.00 1.45 1.45 73 1022.4
20220628053008 22 180 4.8 16.1 0.00 1.45 1.45 71 1022.1
20220628052506 22 142 4.8 17.7 0.00 1.45 1.45 70 1022.1
20220628052006 22 124 9.7 11.3 0.00 1.45 1.45 69 1022.3
20220628051504 23 144 8.0 9.7 0.00 1.45 1.45 68 1022.3
20220628051003 22 156 6.4 12.9 0.00 1.45 1.45 69 1022.4
20220628050502 22 147 4.8 9.7 0.00 1.45 1.45 71 1022.0
20220628050001 23 120 4.8 12.9 0.00 1.45 1.45 71 1022.1
20220628045500 23 165 4.8 12.9 0.00 1.45 1.45 73 1022.0
20220628045000 22 170 4.8 9.7 0.00 1.45 1.45 82 1021.7
20220628044458 22 166 4.8 4.8 0.00 1.45 1.45 84 1021.5
20220628043958 21 172 0.0 4.8 0.00 1.45 1.45 86 1021.6
20220628043458 21 105 3.2 4.8 0.00 1.45 1.45 87 1021.5
20220628042957 21 96 1.6 4.8 0.00 1.45 1.45 87 1021.5
20220628042457 22 106 0.0 4.8 0.00 1.45 1.45 87 1021.4
20220628041956 22 90 0.0 3.2 0.00 1.45 1.45 85 1021.4
20220628041454 22 114 0.0 4.8 0.00 1.45 1.45 84 1021.2
20220628040954 22 166 4.8 4.8 0.00 1.45 1.45 84 1021.4
20220628040452 22 151 0.0 4.8 0.00 1.45 1.45 83 1020.8
20220628035952 22 40 0.0 4.8 0.00 1.45 1.45 82 1020.7
20220628035451 23 18 4.8 4.8 0.00 1.45 1.45 80 1020.5
20220628034950 23 11 4.8 6.4 0.00 1.45 1.45 81 1020.4
20220628034450 22 10 4.8 6.4 0.00 1.45 1.45 82 1020.3
20220628033949 22 348 4.8 4.8 0.00 1.45 1.45 82 1020.4
20220628033449 22 351 6.4 6.4 0.00 1.45 1.45 81 1020.2
20220628032948 23 341 3.2 6.4 0.00 1.45 1.45 80 1020.1
20220628032447 23 352 4.8 6.4 0.00 1.45 1.45 78 1020.0
20220628031946 23 357 4.8 8.0 0.00 1.45 1.45 78 1020.1
20220628031445 23 353 4.8 6.4 0.00 1.45 1.45 78 1019.7
20220628030943 23 348 6.4 8.0 0.00 1.45 1.45 77 1019.5
20220628030444 23 346 6.4 9.7 0.00 1.45 1.45 76 1020.0